Location: Rotheul
(50.2849°N, 11.2349°E)
Time: 07:18:11
(UTC+02:00)

ISS - Pass Details

Date: 21 July 2018
Orbit: 402 x 408 km, 51.6° (Epoch: 18 July)

Event Time Altitude Azimuth Distance (km) Brightness Sun altitude
Rises 22:52:51 0° 238° (WSW) 2,314 0.1 -12.1°
Reaches altitude 10° 22:54:56 10° 233° (SW) 1,458 -1.0 -12.3°
Maximum altitude 22:58:08 54° 156° (SSE) 498 -3.8 -12.6°
Drops below altitude 10° 23:01:22 10° 78° (ENE) 1,467 -1.2 -12.9°
Sets 23:03:28 0° 73° (ENE) 2,330 -0.1 -13.1°
